Volver al catálogo

FENGYUN 1C DEB

ActivoPO
NORAD 31898·DEBRIS·🇨🇳 China

Lanzado May 10, 1999 desde Taiyuan Satellite Launch Center

Loading…

Próximos Pases (próximas 24 horas)

TLE

ObsoletoSource: Space-Track

Época: Sep 2, 2026, 11:42 UTC

1 31898U 99025CKZ 26245.48790060  .00002570  00000-0  36616-3 0  9996
2 31898  98.6741 132.5259 0139095 114.5234 247.0545 14.71340703695872

Sigue FENGYUN 1C DEB en tiempo real con AllMySat

Download on the App Store